This demonstration page uses our WeatherBlox Daily Observations layout. Learn more.

Left ArrowRight Arrow

36.17497, -115.13722

Hourly Observations for December 21, 2018

Temp ( °F °C ) Dew Point ( °F °C ) Humidity (%) Winds ( mph kmh ) Pressure ( in mb ) Visibility ( mi km ) Precip ( " mm )
12:53 am 00:53 Clear 48 8.9 30 -1.1 50 50 NW 5 7 30.06 1018 10 16.0934 0 0
1:53 am 01:53 Clear 46 7.8 30 -1.1 54 54 NW 3 6 30.06 1018 10 16.0934 0 0
2:53 am 02:53 Clear 46 7.8 29 -1.7 51 51 Calm 30.05 1018 10 16.0934 0 0
3:53 am 03:53 Clear 45 7.2 29 -1.7 54 54 NW 3 6 30.03 1017 10 16.0934 0 0
4:53 am 04:53 Clear 45 7.2 30 -1.1 56 56 NW 6 9 30.03 1017 10 16.0934 0 0
5:53 am 05:53 Clear 46 7.8 30 -1.1 54 54 Calm 30.02 1017 10 16.0934 0 0
6:53 am 06:53 Sunny 45 7.2 30 -1.1 56 56 W 3 6 30.02 1017 10 16.0934 0 0
7:53 am 07:53 Sunny 46 7.8 29 -1.7 51 51 NNW 3 6 30.06 1018 10 16.0934 0 0
8:53 am 08:53 Sunny 51 10.6 27 -2.8 39 39 NNW 12 19 30.07 1018 10 16.0934 0 0
9:53 am 09:53 Sunny 56 13.3 27 -2.8 33 33 N 5 7 30.08 1019 10 16.0934 0 0
10:53 am 10:53 Sunny 57 13.9 28 -2.2 33 33 SE 5 7 30.05 1018 10 16.0934 0 0
11:53 am 11:53 Sunny 57 13.9 29 -1.7 34 34 ESE 5 7 30.02 1017 10 16.0934 0 0
12:53 pm 12:53 Sunny 60 15.6 28 -2.2 30 30 SE 5 7 30.01 1016 10 16.0934 0 0
1:53 pm 13:53 Sunny 62 16.7 28 -2.2 28 28 E 6 9 29.98 1015 10 16.0934 0 0
2:53 pm 14:53 Sunny 61 16.1 28 -2.2 29 29 SE 7 11 29.97 1015 10 16.0934 0 0
3:53 pm 15:53 Sunny 60 15.6 27 -2.8 28 28 E 7 11 29.98 1015 10 16.0934 0 0
4:53 pm 16:53 Clear 57 13.9 28 -2.2 33 33 Calm 30 1016 10 16.0934 0 0
5:53 pm 17:53 Clear 54 12.2 28 -2.2 37 37 Calm 30 1016 10 16.0934 0 0
6:53 pm 18:53 Clear 51 10.6 28 -2.2 41 41 NW 6 9 30.02 1017 10 16.0934 0 0
7:53 pm 19:53 Clear 48 8.9 29 -1.7 48 48 NW 6 9 30.02 1017 10 16.0934 0 0
8:53 pm 20:53 Clear 48 8.9 29 -1.7 48 48 NNW 3 6 30.03 1017 10 16.0934 0 0
9:53 pm 21:53 Clear 45 7.2 30 -1.1 56 56 N 5 7 30.04 1017 10 16.0934 0 0
10:53 pm 22:53 Clear 45 7.2 29 -1.7 54 54 NNW 3 6 30.04 1017 10 16.0934 0 0
11:53 pm 23:53 Clear 46 7.8 29 -1.7 51 51 NW 6 9 30.04 1017 10 16.0934 0 0

Powered by AerisWeather